SV2LPQ-2 Weather Reports


time (UTC)temp
F
wind
direction
speed
knots
gust
knots
rain 1hr
in
rain 24hr
in
rain mn
in
humidity
%
barometer
mb
20260505092433 76 269 0.0 0.0 0.00 0.00 0.00 39 1042.5
20260505091614 75 314 0.9 2.6 0.00 0.00 0.00 40 1042.5
20260505090753 74 315 0.0 0.0 0.00 0.00 0.00 39 1042.5
20260505085933 74 338 0.0 0.0 0.00 0.00 0.00 39 1042.5
20260505085113 74 310 0.0 0.0 0.00 0.00 0.00 41 1042.5
20260505084253 73 330 0.0 0.0 0.00 0.00 0.00 43 1042.5
20260505083433 72 316 0.9 5.2 0.00 0.00 0.00 43 1042.5
20260505082613 72 338 0.0 0.0 0.00 0.00 0.00 45 1042.5
20260505081753 71 292 0.0 0.0 0.00 0.00 0.00 45 1042.5
20260505080934 71 349 0.9 2.6 0.00 0.00 0.00 48 1042.5
20260505080113 71 338 0.9 5.2 0.00 0.00 0.00 47 1042.5
20260505075253 70 359 0.0 0.9 0.00 0.00 0.00 50 1042.5
20260505074433 69 345 0.0 0.0 0.00 0.00 0.00 48 1042.5
20260505073613 69 312 0.0 0.0 0.00 0.00 0.00 48 1042.5
20260505072753 68 335 0.0 5.2 0.00 0.00 0.00 49 1042.5
20260505071933 67 338 0.0 0.0 0.00 0.00 0.00 50 1042.5
20260505071113 67 292 0.0 0.0 0.00 0.00 0.00 50 1042.5
20260505070253 66 338 0.0 0.0 0.00 0.00 0.00 51 1042.5
20260505065433 66 0 0.0 0.0 0.00 0.00 0.00 53 1042.5
20260505064613 65 303 0.0 0.0 0.00 0.00 0.00 53 1042.5
20260505063753 64 327 0.9 1.7 0.00 0.00 0.00 55 1042.5
20260505062933 64 338 0.0 0.9 0.00 0.00 0.00 56 1042.5
20260505062113 63 315 0.0 0.0 0.00 0.00 0.00 56 1042.5
20260505061253 63 0 0.0 0.0 0.00 0.00 0.00 57 1042.5
20260505060433 62 0 0.0 0.0 0.00 0.00 0.00 59 1042.5
20260505055613 61 315 0.0 0.0 0.00 0.00 0.00 61 1042.5
20260505054753 60 315 0.0 0.0 0.00 0.00 0.00 64 1042.5
20260505053933 59 315 0.0 0.0 0.00 0.00 0.00 68 1042.5
20260505053113 58 315 0.0 0.0 0.00 0.00 0.00 69 1042.5
20260505052253 57 315 0.0 0.0 0.00 0.00 0.00 70 1042.5
20260505051433 56 315 0.0 0.0 0.00 0.00 0.00 71 1042.5
20260505050613 56 315 0.0 0.0 0.00 0.00 0.00 73 1042.5
20260505041613 50 112 0.0 0.0 0.00 0.00 0.00 80 1042.5
20260505040753 49 112 0.0 0.0 0.00 0.00 0.00 81 1042.5
20260505035933 48 112 0.0 0.0 0.00 0.00 0.00 82 1042.5
20260505035113 48 68 0.0 0.0 0.00 0.00 0.00 82 1042.5
20260505034253 48 68 0.0 0.0 0.00 0.00 0.00 82 1042.5
20260505033433 48 68 0.0 0.0 0.00 0.00 0.00 82 1042.5
20260505032613 48 68 0.0 0.0 0.00 0.00 0.00 82 1042.5
20260505031753 48 248 0.0 0.0 0.00 0.00 0.00 82 1042.5
20260505030933 48 248 0.0 0.0 0.00 0.00 0.00 82 1042.5
20260505030113 49 248 0.0 0.0 0.00 0.00 0.00 81 1042.5
20260505025253 49 238 0.0 0.0 0.00 0.00 0.00 80 1042.5
20260505024433 49 225 0.0 0.0 0.00 0.00 0.00 80 1042.5
20260505023613 49 0 0.0 0.0 0.00 0.00 0.00 80 1042.5
20260505022753 49 22 0.0 0.0 0.00 0.00 0.00 80 1042.5
20260505021933 49 22 0.0 0.0 0.00 0.00 0.00 80 1042.5
20260505021113 50 22 0.0 0.0 0.00 0.00 0.00 80 1042.5
20260505020253 50 22 0.0 0.0 0.00 0.00 0.00 81 1042.5
20260505015433 50 0 0.0 0.0 0.00 0.00 0.00 81 1042.5
20260505014613 50 0 0.0 0.0 0.00 0.00 0.00 81 1042.5
20260505013753 50 22 0.0 0.0 0.00 0.00 0.00 80 1042.5
20260505012933 50 22 0.0 0.0 0.00 0.00 0.00 78 1042.5
20260505012113 50 22 0.0 0.0 0.00 0.00 0.00 79 1042.5
20260505011253 50 22 0.0 0.0 0.00 0.00 0.00 79 1042.5
20260505010433 50 44 0.0 0.0 0.00 0.00 0.00 79 1042.5
20260505005613 50 45 0.0 0.0 0.00 0.00 0.00 79 1042.5
20260505004753 50 45 0.0 0.0 0.00 0.00 0.00 78 1042.5
20260505003933 51 45 0.0 0.0 0.00 0.00 0.00 78 1042.5
20260505003113 50 45 0.0 0.0 0.00 0.00 0.00 78 1042.5
20260505002253 50 45 0.0 0.0 0.00 0.00 0.00 78 1042.5
20260505001433 50 45 0.0 0.0 0.00 0.00 0.00 77 1042.5
20260505000613 50 45 0.0 0.0 0.00 0.00 0.00 76 1042.5
20260504235753 50 45 0.0 0.0 0.00 0.00 0.00 76 1042.5
20260504234933 51 45 0.0 0.0 0.00 0.00 0.00 76 1042.5
20260504234113 51 45 0.0 0.0 0.00 0.00 0.00 75 1042.5
20260504233253 50 45 0.0 0.0 0.00 0.00 0.00 76 1042.5
20260504232433 51 45 0.0 0.0 0.00 0.00 0.00 74 1042.5
20260504231613 51 45 0.0 0.0 0.00 0.00 0.00 75 1042.5
20260504230753 51 45 0.0 0.0 0.00 0.00 0.00 74 1042.5
20260504225933 51 45 0.0 0.0 0.00 0.00 0.00 75 1042.5
20260504225113 51 45 0.0 0.0 0.00 0.00 0.00 75 1042.5
20260504224253 51 45 0.0 0.0 0.00 0.00 0.00 75 1042.5
20260504223433 52 45 0.0 0.0 0.00 0.00 0.00 73 1042.5
20260504222613 52 45 0.0 0.0 0.00 0.00 0.00 72 1042.5
20260504221753 53 45 0.0 0.0 0.00 0.00 0.00 71 1042.5
20260504220932 53 45 0.0 0.0 0.00 0.00 0.00 72 1042.5
20260504220112 53 45 0.0 0.0 0.00 0.00 0.00 72 1042.5
20260504215252 53 45 0.0 0.0 0.00 0.00 0.00 71 1042.5
20260504214432 53 45 0.0 0.0 0.00 0.00 0.00 71 1042.5
20260504213612 53 45 0.0 0.0 0.00 0.00 0.00 72 1042.5
20260504212752 53 45 0.0 0.0 0.00 0.00 0.00 73 1042.5
20260504211932 54 68 0.0 0.0 0.00 0.00 0.00 69 1042.5
20260504211112 55 68 0.0 0.0 0.00 0.00 0.00 68 1042.5
20260504210252 55 68 0.0 0.0 0.00 0.00 0.00 67 1042.5
20260504205432 55 68 0.0 0.0 0.00 0.00 0.00 65 1042.5
20260504204612 55 68 0.0 0.0 0.00 0.00 0.00 66 1042.5
20260504203752 56 68 0.0 0.0 0.00 0.00 0.00 66 1042.5
20260504202932 56 68 0.0 0.0 0.00 0.00 0.00 63 1042.5
20260504202112 57 68 0.0 0.0 0.00 0.00 0.00 62 1042.5
20260504201252 58 112 0.0 0.0 0.00 0.00 0.00 63 1042.5
20260504200432 59 112 0.0 0.0 0.00 0.00 0.00 63 1042.5
20260504195612 59 112 0.0 0.0 0.00 0.00 0.00 62 1042.5
20260504194752 60 112 0.0 0.0 0.00 0.00 0.00 61 1042.5
20260504193932 60 130 0.0 0.0 0.00 0.00 0.00 61 1042.5
20260504193112 61 202 0.0 0.0 0.00 0.00 0.00 61 1042.5
20260504192252 61 225 0.0 0.0 0.00 0.00 0.00 60 1042.5
20260504191432 62 225 0.0 0.0 0.00 0.00 0.00 56 1042.5
20260504190612 62 225 0.0 0.0 0.00 0.00 0.00 55 1042.5
20260504185752 61 0 0.0 0.0 0.00 0.00 0.00 57 1042.5
20260504184932 62 0 0.0 0.0 0.00 0.00 0.00 54 1042.5
20260504184112 62 0 0.0 0.0 0.00 0.00 0.00 52 1042.5
20260504183252 63 22 0.0 0.0 0.00 0.00 0.00 53 1042.5
20260504182432 63 0 0.0 0.0 0.00 0.00 0.00 52 1042.5
20260504181612 63 0 0.0 0.0 0.00 0.00 0.00 52 1042.5
20260504180752 64 338 0.0 0.0 0.00 0.00 0.00 48 1042.5
20260504175932 66 315 0.0 0.0 0.00 0.00 0.00 45 1042.5
20260504175112 67 248 0.0 0.0 0.00 0.00 0.00 42 1042.5
20260504174252 68 292 0.0 0.0 0.00 0.00 0.00 41 1042.5
20260504173432 68 300 0.0 0.0 0.00 0.00 0.00 41 1042.5
20260504172612 68 338 0.0 0.0 0.00 0.00 0.00 41 1042.5
20260504171752 70 312 0.0 0.0 0.00 0.00 0.00 39 1042.5
20260504170932 70 292 0.0 0.0 0.00 0.00 0.00 37 1042.5
20260504170112 71 234 0.9 4.3 0.00 0.00 0.00 36 1042.5
20260504160252 76 300 0.0 1.7 0.00 0.00 0.00 32 1042.5
20260504150432 77 298 2.6 2.6 0.00 0.00 0.00 30 1042.5
20260504140612 76 279 1.7 6.1 0.00 0.00 0.00 32 1042.5
20260504130752 75 288 0.0 0.0 0.00 0.00 0.00 34 1042.5
20260504120112 73 301 0.0 0.0 0.00 0.00 0.00 35 1042.5
20260504110252 70 51 0.0 0.0 0.00 0.00 0.00 35 1042.5
20260504100432 68 316 0.9 2.6 0.00 0.00 0.00 38 1042.5